Location: Mana�l
(15.0115°N, 12.5022°W)
Time: 12:07:34
(UTC+00:00)

CZ-2C R/B - Pass Details

Date: 07 June 2020
Orbit: 668 x 784 km, 98.2° (Epoch: 06 July)

Event Time Altitude Azimuth Distance (km) Brightness Sun altitude
Rises 04:13:55 0° 22° (NNE) 3,259 6.6 -27.2°
Reaches altitude 10° 04:16:22 10° 29° (NNE) 2,324 5.8 -26.7°
Maximum altitude 04:21:14 43° 100° (E) 1,064 3.5 -25.8°
Enters shadow 04:23:39 26° 155° (SSE) 1,473 3.8 -25.3°
